Indian Springs, NV

2:57 AM PDT on September 22, 2017 (GMT -0700)
Indian Springs Air Force Auxiliary

Weather History for KINS - April, 2013

Change the Weather History Date:

Monday, April 8, 2013

  Actual Average (KDRA) Record (KDRA)
Temperature  
Mean Temperature 54 °F -  
Max Temperature 68 °F 67 °F 93 °F (1989)
Min Temperature 42 °F 41 °F 31 °F (2011)
Degree Days  
Heating Degree Days 10    
Growing Degree Days 4 (Base 50)    
Moisture  
Dew Point 29 °F    
Average Humidity 40    
Maximum Humidity 76    
Minimum Humidity 8    
Precipitation  
Precipitation 0.00 in - - ()
Sea Level Pressure  
Sea Level Pressure 29.49 in    
Wind  
Wind Speed 19 mph (WNW)    
Max Wind Speed 31 mph    
Max Gust Speed 43 mph    
Visibility 10 miles    
Events Rain , Thunderstorm    
Averages and records for this station are not official NWS values.
T = Trace of Precipitation, MM = Missing Value Source: NWS Daily Summary

Daily Weather History Graph

Daily Weather History Graph

Search for Another Location

Airport or City:

Trip Planner

Search our weather history database for the weather conditions in past years. The results will help you decide how hot, cold, wet, or windy it might be!

Date:

Astronomy

Apr. 08, 2013 Rise Set
Actual Time 6:18 AM PDT 7:11 PM PDT
Civil Twilight 5:51 AM PDT 7:37 PM PDT
Nautical Twilight 5:20 AM PDT 8:08 PM PDT
Astronomical Twilight 4:48 AM PDT 8:41 PM PDT
Moon 5:08 AM PDT (4/8) 5:51 PM PDT (4/8)
Length of Visible Light 13h 45m
Length of Day
12h 53m
Waning Crescent, 3% of the Moon is Illuminated
Apr 8
Waning Crescent
Apr 10
New
Apr 18
First Quarter
Apr 25
Full
May 2
Last Quarter

Hourly Weather History & Observations

Time (PDT) Temp. Windchill Dew Point Humidity Pressure Visibility Wind Dir Wind Speed Gust Speed Precip Events Conditions
1:58 AM 67.1 °F - 15.1 °F 13% 29.44 in 10.0 mi SSW 8.1 mph 21.9 mph N/A   Mostly Cloudy
2:58 AM 64.8 °F - 12.0 °F 13% 29.38 in 10.0 mi SW 12.7 mph 24.2 mph N/A   Clear
3:09 AM 66.2 °F - 3.2 °F 8% 29.38 in 10.0 mi South 18.4 mph 29.9 mph N/A   Clear
3:58 AM 62.1 °F - 18.3 °F 18% 29.36 in 10.0 mi SW 25.3 mph 42.6 mph N/A   Clear
4:58 AM 58.8 °F - 26.1 °F 29% 29.36 in 10.0 mi SW 23.0 mph 36.8 mph N/A   Clear
5:58 AM 58.3 °F - 27.5 °F 31% 29.36 in 10.0 mi SW 27.6 mph 35.7 mph N/A   Scattered Clouds
6:28 AM 55.4 °F - 32.0 °F 41% 29.40 in 10.0 mi WSW 18.4 mph 31.1 mph N/A Rain Light Rain
6:41 AM 55.4 °F - 32.0 °F 41% 29.41 in 10.0 mi WSW 25.3 mph 35.7 mph N/A Rain , Thunderstorm Light Thunderstorms and Rain
6:42 AM 55.4 °F - 32.0 °F 41% 29.41 in 10.0 mi WSW 21.9 mph 29.9 mph N/A Rain Light Rain
6:43 AM 55.4 °F - 32.0 °F 41% 29.41 in 10.0 mi WSW 24.2 mph 34.5 mph N/A Rain , Thunderstorm Light Thunderstorms and Rain
6:44 AM 53.6 °F - 32.0 °F 44% 29.41 in 10.0 mi WSW 23.0 mph 29.9 mph N/A Rain Light Rain
6:58 AM 53.1 °F - 31.6 °F 44% 29.43 in 10.0 mi West 25.3 mph - 0.00 in Rain Light Rain
6:59 AM 53.6 °F - 32.0 °F 44% 29.44 in 10.0 mi West 26.5 mph - N/A   Mostly Cloudy
7:01 AM 51.8 °F - 32.0 °F 47% 29.46 in 10.0 mi WNW 29.9 mph - N/A   Mostly Cloudy
7:02 AM 51.8 °F - 32.0 °F 47% 29.47 in 10.0 mi NW 31.1 mph - N/A Rain Light Rain
7:07 AM 50.0 °F - 35.6 °F 58% 29.49 in 10.0 mi NNW 29.9 mph 35.7 mph N/A Rain Light Rain
7:08 AM 48.2 °F - 37.4 °F 66% 29.49 in 10.0 mi NNW 29.9 mph 35.7 mph N/A Rain Light Rain
7:23 AM 42.8 °F 34.8 °F 35.6 °F 76% 29.50 in 10.0 mi North 17.3 mph 27.6 mph N/A Rain Heavy Rain
7:33 AM 44.6 °F 38.4 °F 35.6 °F 71% 29.50 in 10.0 mi NNW 12.7 mph 21.9 mph N/A Rain Light Rain
7:38 AM 44.6 °F 42.2 °F 35.6 °F 71% 29.49 in 10.0 mi NW 4.6 mph 17.3 mph N/A Rain Light Rain
7:46 AM 46.4 °F 42.4 °F 35.6 °F 66% 29.49 in 10.0 mi WSW 8.1 mph - N/A   Overcast
7:58 AM 46.0 °F 40.2 °F 35.4 °F 66% 29.48 in 10.0 mi SSW 12.7 mph - 0.00 in   Mostly Cloudy
8:58 AM 51.3 °F - 31.5 °F 47% 29.45 in 10.0 mi WSW 19.6 mph - N/A   Scattered Clouds
9:54 AM 55.4 °F - 30.2 °F 38% 29.46 in 10.0 mi NW 20.7 mph 28.8 mph N/A   Partly Cloudy
9:58 AM 56.3 °F - 28.9 °F 35% 29.46 in 10.0 mi NW 20.7 mph 28.8 mph N/A   Partly Cloudy
10:58 AM 56.8 °F - 27.1 °F 32% 29.46 in 10.0 mi NW 23.0 mph 27.6 mph N/A   Mostly Cloudy
11:58 AM 58.1 °F - 25.7 °F 29% 29.45 in 10.0 mi WNW 21.9 mph 28.8 mph N/A   Scattered Clouds
11:59 AM 59.0 °F - 26.6 °F 29% 29.45 in 10.0 mi WNW 19.6 mph 28.8 mph N/A   Scattered Clouds
12:33 PM 59.0 °F - 30.2 °F 34% 29.46 in 10.0 mi WNW 24.2 mph 28.8 mph N/A Rain Light Rain
12:34 PM 59.0 °F - 30.2 °F 34% 29.46 in 10.0 mi WNW 24.2 mph 28.8 mph N/A Rain Light Rain
12:38 PM 57.2 °F - 32.0 °F 38% 29.46 in 10.0 mi West 19.6 mph 28.8 mph N/A Rain Light Rain
12:55 PM 59.0 °F - 24.8 °F 27% 29.45 in 10.0 mi WNW 18.4 mph 31.1 mph N/A   Mostly Cloudy
12:58 PM 54.1 °F - 29.8 °F 39% 29.46 in 10.0 mi West 13.8 mph 29.9 mph 0.00 in Rain Light Rain
12:59 PM 55.4 °F - 32.0 °F 41% 29.46 in 10.0 mi West 15.0 mph 25.3 mph N/A   Overcast
1:16 PM 57.2 °F - 28.4 °F 33% 29.47 in 10.0 mi WNW 15.0 mph - N/A   Overcast
1:18 PM 57.2 °F - 28.4 °F 33% 29.47 in 10.0 mi NNW 20.7 mph 28.8 mph N/A   Overcast
1:23 PM 57.2 °F - 32.0 °F 38% 29.48 in 10.0 mi NNW 29.9 mph 35.7 mph N/A Rain Light Rain
1:39 PM 53.6 °F - 32.0 °F 44% 29.49 in 10.0 mi NNW 20.7 mph 24.2 mph N/A   Mostly Cloudy
1:58 PM 57.7 °F - 31.1 °F 36% 29.49 in 10.0 mi NNW 18.4 mph 29.9 mph 0.00 in   Mostly Cloudy
2:34 PM 57.2 °F - 30.2 °F 36% 29.50 in 10.0 mi North 13.8 mph - N/A   Overcast
2:45 PM 55.4 °F - 32.0 °F 41% 29.51 in 10.0 mi North 19.6 mph 27.6 mph N/A Rain Rain
2:46 PM 53.6 °F - 33.8 °F 47% 29.51 in 10.0 mi North 21.9 mph 27.6 mph N/A Rain Rain
2:52 PM 51.8 °F - 37.4 °F 58% 29.53 in 10.0 mi NNW 20.7 mph 28.8 mph N/A Rain Light Rain
2:58 PM 50.9 °F - 37.8 °F 61% 29.52 in 10.0 mi WNW 16.1 mph 26.5 mph 0.00 in Rain Light Rain
3:10 PM 50.0 °F - 39.2 °F 66% 29.52 in 10.0 mi WNW 23.0 mph 31.1 mph N/A   Overcast
3:50 PM 51.8 °F - 33.8 °F 50% 29.53 in 10.0 mi WNW 17.3 mph - N/A Rain Light Rain
3:58 PM 52.7 °F - 34.3 °F 50% 29.53 in 10.0 mi WNW 21.9 mph 26.5 mph 0.00 in Rain Light Rain
3:59 PM 53.6 °F - 33.8 °F 47% 29.52 in 10.0 mi WNW 24.2 mph 27.6 mph N/A   Mostly Cloudy
4:58 PM 55.8 °F - 28.4 °F 35% 29.55 in 10.0 mi NNW 21.9 mph 25.3 mph 0.00 in   Partly Cloudy
5:58 PM 56.5 °F - 18.7 °F 23% 29.58 in 10.0 mi NNW 26.5 mph 35.7 mph N/A   Scattered Clouds
6:58 PM 55.4 °F - 18.0 °F 23% 29.61 in 10.0 mi North 24.2 mph - N/A   Scattered Clouds
7:58 PM 53.4 °F - 18.5 °F 25% 29.64 in 10.0 mi North 15.0 mph - N/A   Overcast
8:58 PM 53.1 °F - 16.9 °F 24% 29.67 in 10.0 mi NNW 19.6 mph 31.1 mph N/A   Mostly Cloudy
9:58 PM 52.2 °F - 16.3 °F 24% 29.69 in 10.0 mi NNW 16.1 mph 26.5 mph N/A   Overcast
10:58 PM 50.2 °F - 18.7 °F 29% 29.72 in 10.0 mi NW 10.4 mph 19.6 mph N/A   Overcast
11:25 PM 50.0 °F - 21.2 °F 32% 29.72 in 10.0 mi NNW 15.0 mph - N/A   Overcast
11:58 PM 49.1 °F - 18.7 °F 30% 29.74 in 10.0 mi WNW 12.7 mph - N/A   Scattered Clouds